Location: Arena
(42.5007°N, 9.4650°E)
Time: 22:08:41
(UTC+00:00)

Cosmos 1892 - Pass Details

Date: 09 April 2020
Orbit: 503 x 526 km, 82.5° (Epoch: 05 June)

Event Time Altitude Azimuth Distance (km) Brightness Sun altitude
Rises 19:57:49 0° 357° (N) 2,671 6.8 -21.2°
Reaches altitude 10° 20:00:02 10° 4° (N) 1,778 5.8 -21.5°
Enters shadow 20:02:57 39° 40° (NE) 804 3.5 -22.0°
